Theta_e
295 295 295 294 294 293 293 293 292 292 292 292 292 292 292 292 291 290 289 290 289 290 290 290 291 292 292 293 293 294 294 294 292 294 297 300 301 301 301 302 304 303 304
296 295 294 294 293 292 292 292 292 292 292 292 292 291 292 292 291 290 289 290 289 289 290 291 291 294 292 293 293 293 294 295 294 293 297 299 300 302 302 302 303 305 308
295 294 294 293 293 292 292 291 291 290 290 291 291 291 291 291 290 290 290 290 290 290 291 291 292 293 292 293 293 294 295 296 296 296 297 300 301 302 302 303 303 303 308
294 294 293 292 293 292 292 290 290 290 289 290 290 291 291 291 291 291 291 290 290 292 293 293 293 293 293 294 294 295 296 296 299 298 297 299 301 304 304 302 302 305 306
294 293 293 293 293 292 291 290 290 289 290 290 289 290 290 291 292 290 291 291 291 292 293 294 295 297 303 301 298 297 297 296 297 298 297 299 300 302 301 304 303 305 307
294 293 294 293 292 291 291 290 289 289 289 289 288 289 289 292 298 301 299 293 293 293 292 293 294 298 297 303 304 304 302 298 298 298 300 299 302 304 305 305 303 304 303
294 294 293 293 292 291 291 290 289 288 287 288 288 288 288 288 299 301 301 294 293 291 290 291 292 296 298 295 300 303 303 304 306 304 301 301 304 306 306 305 305 306 307
294 294 293 293 292 291 290 289 287 287 287 287 287 288 288 290 299 301 301 293 291 291 291 291 291 293 294 297 298 298 299 301 304 303 304 306 307 310 308 308 308 309 311
294 293 293 293 291 290 289 288 287 287 286 287 288 287 287 288 297 300 298 292 291 291 292 292 292 294 299 302 298 298 299 301 305 308 309 309 312 315 313 311 308 308 308
294 294 293 293 291 290 289 288 286 287 288 288 288 287 291 288 296 298 298 292 289 290 292 293 300 298 301 302 299 298 298 299 303 302 302 305 310 314 315 312 313 311 311
295 293 292 292 291 290 288 288 287 287 287 287 288 287 286 287 287 298 300 293 291 291 292 293 296 301 302 303 303 298 300 304 301 300 301 303 307 313 313 315 315 313 316
293 291 291 290 291 290 288 287 287 287 287 286 286 286 286 287 294 297 299 300 299 292 292 295 295 301 301 302 301 303 305 302 299 299 300 301 304 311 313 314 317 319 320
291 290 289 289 289 289 288 287 286 286 286 285 285 285 286 288 288 296 299 300 300 297 296 298 300 300 300 299 301 303 303 298 298 298 298 299 302 304 314 315 318 318 316
289 288 289 288 288 289 289 289 288 286 285 286 286 285 285 287 288 289 290 291 297 297 298 294 296 297 298 298 297 299 300 298 298 298 298 300 303 305 313 315 315 313 312
288 288 289 291 289 289 289 289 289 287 289 286 286 286 286 286 289 294 295 293 293 295 298 291 289 289 290 291 294 296 298 298 297 298 298 299 302 306 313 315 314 313 310
288 289 290 290 290 290 289 289 294 293 296 296 296 291 292 296 298 299 299 299 299 300 293 288 287 287 288 290 291 294 297 297 296 298 298 300 301 307 312 315 313 312 309
290 290 291 291 290 289 289 288 287 292 298 298 297 297 297 297 298 298 298 298 298 296 287 287 286 287 288 289 292 295 296 296 297 298 298 299 302 307 312 314 312 310 308
292 295 291 290 290 289 289 288 288 287 287 287 293 295 296 296 296 296 297 296 288 289 287 286 286 287 288 289 292 295 296 296 296 297 298 299 301 304 312 313 311 309 307
293 292 291 291 290 290 289 288 288 288 288 287 287 292 293 294 295 296 296 288 286 286 287 287 287 287 288 289 293 295 296 295 296 297 297 298 300 302 312 313 311 308 307
292 293 292 290 290 288 288 288 288 288 288 288 288 289 288 288 286 287 288 287 286 286 287 287 288 288 289 290 294 295 296 295 295 297 297 298 300 301 307 314 311 308 308
292 293 293 289 288 288 289 289 290 290 289 288 287 290 293 289 287 288 287 287 288 288 289 290 292 293 290 291 293 295 296 295 295 296 297 298 299 299 302 315 312 310 309
290 290 289 288 289 290 290 289 288 287 288 287 288 289 292 289 289 290 287 287 288 290 291 291 291 294 291 291 293 295 296 295 295 296 297 297 298 299 301 309 312 310 309
289 289 289 289 290 291 288 288 288 287 287 287 288 287 287 286 288 288 288 288 289 289 290 291 292 291 291 292 294 296 296 296 296 297 296 296 297 298 300 308 312 310 308
291 290 289 289 289 288 287 286 286 288 287 286 287 287 285 286 287 290 288 288 289 290 291 291 291 291 291 292 294 296 296 297 297 296 297 296 295 297 299 307 312 310 309
289 288 288 287 288 287 287 286 286 285 286 287 288 287 285 286 287 288 288 288 288 292 290 291 292 292 291 292 293 295 295 293 294 294 296 296 296 297 300 309 312 310 308
289 288 288 288 288 287 286 285 284 288 288 289 289 286 288 290 289 287 288 288 291 293 292 291 293 292 292 293 294 294 294 294 295 295 295 296 298 301 304 312 311 310 307
Wind_Speed
17 15 15 13 12 10 10 9 9 7 8 7 7 7 6 6 6 5 5 6 6 6 6 6 8 7 6 5 5 6 7 8 13 15 12 14 16 15 14 13 14 13 10
16 16 15 15 14 12 10 10 9 9 7 8 7 6 6 6 5 5 6 5 6 6 8 6 8 7 7 7 6 9 9 10 10 21 17 14 15 14 17 16 12 11 11
15 16 15 15 15 14 12 10 9 8 8 7 7 7 7 6 5 5 6 6 6 7 8 7 9 6 8 7 8 9 9 9 10 14 14 13 16 14 16 13 13 12 10
15 16 16 17 16 14 12 11 10 9 8 7 7 7 6 6 5 6 6 6 7 7 8 7 7 8 9 9 10 11 10 10 11 11 14 14 12 15 7 8 9 11 10
16 16 17 15 14 13 12 11 10 9 8 7 7 6 6 5 4 6 6 7 7 7 6 6 7 10 19 18 10 9 8 9 11 12 14 14 14 9 6 6 7 7 8
16 17 14 15 14 14 13 12 11 9 7 7 7 7 6 4 9 10 8 6 6 6 6 7 7 14 13 21 22 24 21 14 15 13 13 16 19 5 7 8 7 6 6
15 15 15 16 16 15 14 13 11 10 7 8 7 7 6 6 10 10 11 3 4 5 6 6 7 7 14 10 17 23 22 28 27 18 16 16 16 7 7 6 7 6 3
16 14 15 16 15 14 14 13 9 8 9 7 7 7 6 6 10 10 11 2 3 6 7 7 7 9 10 13 14 14 15 16 13 13 14 15 14 6 8 8 9 4 2
18 18 16 16 16 15 14 13 8 8 6 6 5 7 7 6 9 9 8 2 5 7 7 7 7 9 14 22 14 15 15 12 18 26 26 26 28 10 9 5 5 4 4
18 19 17 17 17 16 14 13 6 6 6 6 6 6 8 7 8 8 7 3 4 5 6 7 16 13 21 24 14 12 13 15 15 17 17 17 18 4 13 5 3 8 7
15 15 15 15 16 15 14 8 9 7 7 6 6 5 5 6 6 9 9 3 4 4 4 6 6 15 21 24 23 11 14 17 17 11 12 9 11 3 4 5 6 5 6
15 16 16 14 12 12 15 9 8 8 7 6 5 4 4 4 8 9 10 12 10 4 5 5 6 16 21 21 18 22 22 20 10 8 9 8 7 2 2 2 4 2 2
16 16 15 14 13 13 13 11 7 6 5 5 4 4 3 2 4 8 10 12 11 6 4 8 15 17 18 13 18 21 14 9 11 10 9 10 7 8 3 2 1 4 13
15 15 15 14 13 11 8 8 7 6 5 4 4 4 3 3 3 3 4 4 10 7 9 5 7 11 13 12 11 10 5 8 9 9 9 9 9 6 5 3 3 6 11
13 13 13 11 12 10 7 8 6 5 7 6 5 4 4 4 4 6 7 4 4 5 7 2 2 3 5 5 7 7 5 7 8 8 10 8 7 9 5 5 5 8 9
13 11 10 9 8 8 7 5 6 8 12 9 8 7 4 7 8 9 11 12 11 12 3 1 3 4 4 6 6 7 6 10 8 9 9 9 8 8 6 6 8 8 12
12 10 8 8 6 6 6 6 6 3 7 7 6 6 5 4 6 9 10 9 9 7 1 3 4 4 4 5 6 7 6 8 10 8 9 9 9 10 8 8 10 11 11
9 14 6 6 6 5 5 5 4 4 4 2 1 2 2 3 6 7 8 4 3 3 3 4 4 4 4 5 6 7 5 8 8 8 9 9 9 10 9 8 10 13 13
5 4 5 4 5 6 5 4 4 4 3 3 1 1 1 3 6 6 6 1 2 3 4 4 5 4 4 4 7 7 5 8 11 9 8 8 9 9 8 9 12 17 16
4 12 9 6 6 5 4 4 4 3 3 3 3 2 1 1 1 2 2 2 2 4 5 5 5 4 4 4 6 6 5 7 9 9 9 9 9 7 8 11 14 16 14
5 6 12 5 5 4 4 4 3 3 2 2 2 2 6 4 4 4 2 3 3 4 5 5 5 4 4 5 6 5 6 7 9 10 9 10 9 9 8 9 15 15 14
5 6 5 5 4 4 4 4 4 3 2 2 1 1 5 1 2 2 2 3 4 4 5 5 5 5 4 4 6 6 6 6 9 10 10 9 8 8 7 6 14 14 13
7 7 6 5 5 7 4 3 3 2 1 1 1 2 2 3 3 2 3 3 4 4 5 5 6 5 4 5 5 6 6 7 9 10 11 10 8 8 6 8 16 15 15
7 7 7 5 4 4 4 3 2 2 2 0 0 1 2 3 4 3 4 4 4 4 4 5 6 7 6 6 6 5 5 6 8 11 14 11 8 9 8 10 14 17 15
7 6 5 4 4 4 4 3 2 2 1 1 1 2 3 4 3 3 4 4 4 5 6 7 6 7 8 10 10 8 7 13 13 16 10 12 12 10 10 8 15 15 16
6 6 5 4 3 3 3 3 0 0 1 1 0 2 3 2 2 3 4 4 4 6 6 6 8 10 10 8 9 9 12 15 16 22 14 9 8 7 6 8 19 14 18
Wind_Direction
181 177 172 171 172 168 170 175 181 170 177 182 185 190 206 218 219 219 239 257 244 256 265 245 256 252 249 242 234 239 241 235 264 285 284 284 280 270 269 261 256 248 246
180 173 171 169 171 172 176 177 172 181 173 178 181 191 206 218 225 225 252 257 255 266 264 264 261 264 252 253 250 250 246 244 257 279 280 286 273 277 277 257 249 239 234
175 173 172 173 173 178 179 173 171 167 174 178 176 195 206 216 227 234 231 254 260 253 255 253 260 269 265 265 256 258 255 256 255 263 282 294 280 274 266 244 236 232 235
175 179 177 176 176 176 172 169 170 172 168 177 189 198 202 213 221 236 247 255 255 255 259 257 257 252 255 261 259 261 263 263 266 274 284 282 278 279 233 226 232 226 212
176 181 185 175 172 165 164 168 169 166 175 177 180 197 203 199 218 227 238 248 251 265 270 266 258 261 287 296 297 282 270 280 284 283 285 283 282 255 210 215 227 229 216
186 184 176 169 166 169 166 167 165 166 164 170 189 194 190 211 237 255 279 248 257 252 263 275 271 296 294 296 302 302 297 292 292 283 288 289 297 216 209 205 202 197 224
189 181 175 171 171 171 167 161 164 166 157 181 188 181 209 223 246 263 283 267 246 254 264 271 287 290 302 288 289 293 292 286 286 293 294 289 297 222 182 183 193 207 218
183 186 175 173 170 165 162 167 155 155 171 173 179 190 207 232 247 267 286 289 262 274 267 270 270 279 277 289 287 296 294 294 294 296 286 289 289 247 203 180 188 218 295
185 179 178 173 163 162 166 162 153 146 162 169 170 186 199 242 252 269 285 264 272 273 273 275 269 266 288 306 308 300 292 300 302 305 311 314 307 224 194 168 174 201 245
186 183 171 167 162 163 160 155 140 151 164 157 183 195 206 232 256 271 270 247 255 265 277 267 275 302 315 314 307 302 307 307 317 325 322 328 329 224 174 153 214 211 192
176 165 161 165 159 156 146 144 144 146 140 163 190 191 216 216 256 261 269 268 239 257 263 274 269 305 310 315 318 320 297 324 326 319 314 323 306 195 186 189 184 243 254
159 153 151 153 151 144 142 136 138 142 149 169 185 232 231 224 239 246 277 294 279 240 263 277 280 300 319 317 321 314 324 339 312 321 316 326 336 180 231 247 255 227 162
152 150 142 143 138 138 135 137 135 141 152 168 184 210 239 235 238 263 290 290 288 284 255 273 310 316 318 317 312 319 337 327 320 323 327 319 332 319 207 183 248 122 105
143 139 138 135 129 127 130 143 143 152 155 172 186 207 222 230 247 269 265 279 286 291 294 293 289 315 315 315 317 310 323 330 319 314 318 311 311 304 219 137 148 147 125
128 129 127 125 127 131 133 147 151 168 171 169 195 182 185 215 238 246 260 255 252 263 286 227 316 294 307 311 306 306 322 330 324 317 311 304 299 289 183 164 140 153 123
119 117 121 121 128 128 126 106 158 164 182 184 164 164 215 223 244 263 292 293 297 300 308 262 291 280 286 301 303 306 322 327 321 315 314 312 301 289 168 169 163 154 136
97 97 100 98 99 122 137 146 144 74 142 150 183 217 225 234 258 285 288 293 300 324 278 279 271 274 282 289 292 300 318 324 317 311 317 310 296 292 174 181 165 142 142
77 107 114 130 145 133 139 141 137 150 159 191 214 186 237 264 275 280 286 325 341 334 240 254 270 273 273 278 290 297 313 320 316 311 317 312 312 303 183 185 164 155 148
114 115 127 129 123 138 127 130 131 138 164 183 205 9 17 275 285 297 314 166 262 285 278 272 264 267 267 274 288 293 303 320 317 309 317 320 314 315 199 175 165 156 152
141 164 141 127 125 129 119 129 148 154 175 184 182 198 177 94 312 271 259 262 278 266 266 260 261 267 262 273 287 289 290 321 318 312 315 316 304 305 279 173 174 155 164
157 144 135 113 125 117 130 147 140 142 173 191 203 206 222 192 245 240 239 278 275 278 281 279 276 275 275 280 284 285 284 314 310 309 311 311 310 312 312 175 173 163 158
129 110 105 102 106 115 124 124 133 144 184 203 203 299 337 13 290 266 264 276 271 265 266 277 280 275 267 274 281 282 285 295 306 307 306 302 295 285 284 263 168 163 159
108 110 107 114 124 127 115 109 116 142 148 113 205 338 337 322 291 267 276 283 282 290 293 288 280 287 287 274 271 272 287 297 307 303 297 293 292 290 287 255 169 161 165
113 117 119 116 114 108 110 120 119 125 132 245 349 344 318 298 299 306 291 295 297 300 293 287 282 277 286 284 281 273 267 277 298 296 299 297 297 288 271 252 168 166 165
104 111 114 121 119 130 117 115 124 148 177 174 90 340 294 273 286 305 292 294 304 314 288 292 283 280 284 292 290 282 280 299 299 296 300 295 289 267 255 238 167 167 160
120 116 111 107 119 126 121 110 151 318 20 56 35 302 286 303 309 297 296 300 298 300 294 287 285 285 295 297 290 296 312 311 311 310 312 298 277 254 243 200 168 161 161